Regional Weather Roundup
Issued by NWS

Home | Current Version | Previous Version | Text Only | Print | Product List | Glossary Off
Versions: 1 2 3 4 5 6 7 8 9 10 11 12 13 14 15 16 17 18 19 20 21 22 23 24 25 26 27 28 29 30 31 32 33 34 35 36 37 38 39 40 41 42 43 44 45 46 47 48 49 50

000
ASUS45 KTFX 270310
RWRMT
MONTANA REGIONAL WEATHER ROUNDUP
NATIONAL WEATHER SERVICE GREAT FALLS MT
900 PM MDT TUE MAY 26 2015

NOTE: "FAIR" INDICATES FEW OR NO CLOUDS BELOW 12000 FEET WITH NO
SIGNIFICANT WEATHER AND/OR OBSTRUCTIONS TO VISIBILITY.

MTZ001>007-043-270400-
WEST OF THE DIVIDE

CITY           SKY/WX    TMP DP  RH WIND       PRES   REMARKS
KALISPELL      CLEAR     61  45  55 W6        29.93R
MISSOULA       CLOUDY    61  41  47 NW8       29.95R
BUTTE          CLOUDY    52  41  66 N14G23    30.01R
MULLAN PASS    MOCLDY    45  42  89 N6        30.03R
$$

MTZ008-052>055-270400-
SOUTHWEST MONTANA

CITY           SKY/WX    TMP DP  RH WIND       PRES   REMARKS
BOZEMAN        CLOUDY    62  45  53 E3        29.92R
DILLON         LGT RAIN  52  44  74 W13       29.99R
W YELLOWSTONE  CLOUDY    45  41  87 CALM      30.06F
$$

MTZ009-010-012-014-046-048-049-054-270400-
EAST SLOPES AND CENTRAL MONTANA

CITY           SKY/WX    TMP DP  RH WIND       PRES   REMARKS
CUT BANK       PTCLDY    56  48  74 E8        29.96S
GREAT FALLS    PTCLDY    57  49  74 NE7       29.94S
MALMSTROM AFB  PTCLDY    56  50  80 NE7       29.95S
HELENA         MOCLDY    62  42  47 S10       29.95R
$$

MTZ011-013-016-021-045-047-050-051-270400-
NORTH CENTRAL MONTANA

CITY           SKY/WX    TMP DP  RH WIND       PRES   REMARKS
HAVRE          CLOUDY    60  51  72 S6        29.93R
LEWISTOWN      PTCLDY    58  49  72 W3        29.97S
N BAR RANCH    FAIR      55  46  71 S9        30.00R
$$

MTZ017>020-022>027-061-062-270400-
NORTHEAST MONTANA

CITY           SKY/WX    TMP DP  RH WIND       PRES   REMARKS
GLASGOW        PTCLDY    70  40  33 CALM      29.86S
JORDAN           N/A     63  53  70 E3        29.90R
SIDNEY         MOCLDY    63  48  59 CALM      29.88R
WOLF POINT     CLOUDY    68  51  54 CALM      29.86R
$$

MTZ028>42-056>058-270400-
SOUTHCENTRAL AND SOUTHEAST MONTANA

CITY           SKY/WX    TMP DP  RH WIND       PRES   REMARKS
BAKER          MOCLDY    56  48  74 S7        29.94R
BILLINGS       MOCLDY    58  48  69 CALM      29.95S
LIVINGSTON     MOCLDY    59  46  62 E12       29.95R
MILES CITY     CLOUDY    69  48  47 S3        29.88R
$$

REGIONAL REPORTS...DAKOTAS

CITY           SKY/WX    TMP DP  RH WIND       PRES   REMARKS
WILLISTON      PTCLDY    69  43  38 NE6       29.88R
MINOT          PTCLDY    64  46  52 S9        29.86S
DICKINSON      PTCLDY    57  45  64 S6        29.91R
BEACH          FAIR      55  48  76 S8        29.93R
CROSBY         FAIR      66  45  45 S10       29.88R
WATFORD CITY   MOCLDY    70  43  37 SE12      29.87R
BISMARCK       CLEAR     66  51  58 W5        29.89R
GRAND FORKS    PTCLDY    64  50  60 W6        29.74R
FARGO          PTCLDY    66  53  63 SW8       29.77R
BUFFALO SD       N/A     61  47  59 S9        29.89R
RAPID CITY     CLOUDY    59  50  72 W5        29.97R
$$

REGIONAL REPORTS...WYOMING/IDAHO/WASHINGTON

CITY           SKY/WX    TMP DP  RH WIND       PRES   REMARKS
GILLETTE       MOCLDY    56  49  77 S10       29.97R
SHERIDAN       CLOUDY    57  49  74 NW21      29.97R
BUFFALO WY     MOCLDY    58  47  66 NW3       30.01R
CODY           CLOUDY    52  46  82 NW9       30.00S
YELLOWSTONE LA   N/A     41  37  86 CALM      30.14R
IDAHO FALLS    TSTM      51  47  86 E6        30.04R
SALMON         PTCLDY    57  39  51 CALM      29.90R
BOISE          CLEAR     70  44  39 S7        29.85F
SPOKANE        MOCLDY    61  49  64 NW3       29.95S
$$

REGIONAL REPORTS...ALBERTA

CITY           SKY/WX    TMP DP  RH WIND       PRES   REMARKS
EDMONTON       MOCLDY    66  41  39 NE6       29.95R
CALGARY        CLOUDY    59  45  58 SW14      30.03R
LETHBRIDGE     MOCLDY    61  45  55 NW14      29.95F
MEDICINE HAT   CLOUDY    64  50  59 S6        29.93R
$$

REGIONAL REPORTS...SASKATCHEWAN

CITY           SKY/WX    TMP DP  RH WIND       PRES   REMARKS
SWIFT CURRENT  CLEAR     70  36  28 W5        29.89R HAZE
REGINA         MOCLDY    68  41  37 W8        29.85R
SASKATOON      PTCLDY    64  45  48 NE13      29.92R
$$


USA.gov is the U.S. government's official web portal to all federal, state and local government web resources and services.